Hourly Data Report for February 16, 2017

All times are specified in Local Standard Time (LST). Add 1 hour to adjust for Daylight Saving Time where and when it is observed.

TORONTO INTL A
ONTARIO

43°40'36.000" N
79°37'50.000" W
173.40 m
6158731
71624
YYZ

Download Data

Hourly Data (February 2017)
Hourly Data Report for February 16, 2017
TIME Temp Definition
°C
Dew Point Definition
°C
Rel Hum Definition
%
Wind Dir Definition
10's deg

Wind Spd Definition
km/h
Visibility Definition
km
Stn Press Definition
kPa
Hmdx Definition


Wind Chill Definition


Weather Definition


00:00 -5.8 -10.8 68 31 21 24.1 98.40   -13 LegendNANA
01:00 -6.1 -10.7 70 31 22 24.1 98.41   -13 Mostly Cloudy
02:00 -6.5 -10.6 73 32 27 24.1 98.45   -15 LegendNANA
03:00 -7.1 -11.7 70 33 28 24.1 98.48   -15 LegendNANA
04:00 -7.8 -12.2 71 33 36 24.1 98.50   -17 Mostly Cloudy
05:00 -8.5 -12.3 74 33 23 24.1 98.57   -17 LegendNANA
06:00 -9.4 -12.7 77 35 17 24.1 98.65   -16 LegendNANA
07:00 -9.6 -13.1 76 33 23 24.1 98.70   -18 Mostly Cloudy
08:00 -9.6 -13.6 73 33 29 24.1 98.80   -19 LegendNANA
09:00 -9.0 -13.7 69 32 30 24.1 98.84   -18 LegendNANA
10:00 -8.1 -13.4 66 33 26 24.1 98.88   -16 Clear
11:00 -6.6 -12.7 62 33 27 24.1 98.90   -15 LegendNANA
12:00 -5.6 -12.8 57 33 22 24.1 98.93   -13 LegendNANA
13:00 -4.4 -12.4 54 34 22 24.1 98.91   -11 Mainly Clear
14:00 -3.7 -12.0 53 31 25 24.1 98.90   -11 LegendNANA
15:00 -3.8 -11.8 54 28 22 24.1 98.94   -10 LegendNANA
16:00 -3.7 -11.5 55 30 25 24.1 98.99   -11 Mainly Clear
17:00 -4.1 -11.9 55 30 26 24.1 99.04   -11 LegendNANA
18:00 -5.6 -11.8 62 29 22 24.1 99.07   -13 LegendNANA
19:00 -6.5 -11.9 66 29 19 24.1 99.15   -13 Mainly Clear
20:00 -7.0 -12.0 68 32 16 24.1 99.21   -13 LegendNANA
21:00 -7.4 -12.2 69 31 12 24.1 99.26   -13 LegendNANA
22:00 -7.5 -12.1 70 31 9 24.1 99.24   -12 LegendNANA
23:00 -7.5 -11.9 71 31 10 24.1 99.29   -12 LegendNANA

Notes on Data Quality.

Legend

  • E = Estimated
  • M = Missing
  • NA = Not Available
Date modified: